UPS2346 KPHL-EDDK

Flight info

Callsign UPS2346
Flight time N/A
Altitude 35000
Route DCT DITCH T416 JIMEE DCT WAVEY DCT SHLEP DCT ACK DCT EBONY N733B LOMSI/M083F350 DCT 55N050W 57N040W 58N030W 58N020W DCT SUNOT/N0476F350 DCT KESIX DCT APSOV DCT PEPOD DCT MAKUX DCT SOSIM L15 HON P155 SIVDA P137 REDFA L620 SONEB Z841 GETNI T858 KOPAG KOPAG1B
Aircraft B763/H-SDE3FGHIM3RWXY/LB1

Departure

Time N/A
Airport Philadelphia International Airport (KPHL)

Arrival

Time 2026-04-20 13:12
Airport Cologne Bonn Airport (EDDK)
Time Latitude Longitude Altitude Speed Heading
2026-04-20 09:44 57.85894 -32.10648 37068 ft 465 kts 83°
2026-04-20 09:44 57.86793 -31.98666 37069 ft 468 kts 83°
2026-04-20 09:45 57.87688 -31.86584 37075 ft 469 kts 84°
2026-04-20 09:45 57.88563 -31.74594 37075 ft 469 kts 83°
2026-04-20 09:46 57.89435 -31.62513 37071 ft 467 kts 84°
2026-04-20 09:46 57.90330 -31.49920 37067 ft 468 kts 84°
2026-04-20 09:47 57.91244 -31.36869 37075 ft 469 kts 84°
2026-04-20 09:47 57.92155 -31.23671 37073 ft 461 kts 85°
2026-04-20 09:48 57.93023 -31.10882 37078 ft 462 kts 85°
2026-04-20 09:48 57.93870 -30.98221 37079 ft 464 kts 85°
2026-04-20 09:49 57.94661 -30.86236 37074 ft 461 kts 85°
2026-04-20 09:49 57.95429 -30.74407 37072 ft 459 kts 85°
2026-04-20 09:50 57.96192 -30.62469 37075 ft 461 kts 85°
2026-04-20 09:50 57.96941 -30.50590 37079 ft 461 kts 85°
2026-04-20 09:51 57.97681 -30.38667 37073 ft 459 kts 85°
2026-04-20 09:51 57.98406 -30.26805 37076 ft 458 kts 86°
2026-04-20 09:52 57.99121 -30.14902 37077 ft 458 kts 86°
2026-04-20 09:52 57.99823 -30.03020 37080 ft 458 kts 87°
2026-04-20 09:53 58.00352 -29.90489 37077 ft 454 kts 88°
2026-04-20 09:53 58.00858 -29.77512 37082 ft 454 kts 88°
2026-04-20 09:54 58.01345 -29.64485 37075 ft 454 kts 89°
2026-04-20 09:54 58.01814 -29.51564 37063 ft 440 kts 89°
2026-04-20 09:55 58.02264 -29.38644 37079 ft 444 kts 89°
2026-04-20 09:55 58.02700 -29.25780 37083 ft 449 kts 89°
2026-04-20 09:56 58.03130 -29.12720 37082 ft 450 kts 89°
2026-04-20 09:56 58.03550 -28.99610 37087 ft 447 kts 89°
2026-04-20 09:57 58.03953 -28.86527 37079 ft 448 kts 90°
2026-04-20 09:57 58.04340 -28.73535 36894 ft 448 kts 89°
2026-04-20 09:58 58.04529 -28.67056 37076 ft 444 kts 89°
2026-04-20 09:58 58.04710 -28.60674 37087 ft 447 kts 89°
2026-04-20 09:58 58.05062 -28.48031 37090 ft 450 kts 89°
2026-04-20 09:59 58.05400 -28.35424 37089 ft 448 kts 89°
2026-04-20 09:59 58.05724 -28.22887 37106 ft 446 kts 90°
2026-04-20 10:00 58.06034 -28.10374 37092 ft 446 kts 90°
2026-04-20 10:00 58.06334 -27.97785 37105 ft 447 kts 90°
2026-04-20 10:01 58.06620 -27.85293 37106 ft 446 kts 90°
2026-04-20 10:01 58.06893 -27.72849 37118 ft 444 kts 90°
2026-04-20 10:02 58.07153 -27.60369 37118 ft 446 kts 90°
2026-04-20 10:02 58.07400 -27.47959 37108 ft 445 kts 90°
2026-04-20 10:03 58.07636 -27.35527 37117 ft 445 kts 90°
2026-04-20 10:03 58.07857 -27.23240 37127 ft 444 kts 91°
2026-04-20 10:04 58.08069 -27.10812 37126 ft 444 kts 91°
2026-04-20 10:04 58.08267 -26.98410 37121 ft 445 kts 91°
2026-04-20 10:05 58.08454 -26.86019 37124 ft 444 kts 91°
2026-04-20 10:05 58.08628 -26.73664 37136 ft 444 kts 91°
2026-04-20 10:06 58.08791 -26.61232 37137 ft 445 kts 91°
2026-04-20 10:06 58.08942 -26.48831 37147 ft 443 kts 91°
2026-04-20 10:07 58.09081 -26.36348 37150 ft 444 kts 91°
2026-04-20 10:07 58.09209 -26.23812 37152 ft 442 kts 92°
2026-04-20 10:08 58.09325 -26.11106 37156 ft 442 kts 92°
2026-04-20 10:08 58.09431 -25.98231 37184 ft 442 kts 92°
2026-04-20 10:09 58.09523 -25.85457 37192 ft 443 kts 92°
2026-04-20 10:09 58.09601 -25.72745 37190 ft 442 kts 92°
2026-04-20 10:10 58.09666 -25.60226 37207 ft 442 kts 92°
2026-04-20 10:10 58.09719 -25.47979 37202 ft 442 kts 92°
2026-04-20 10:11 58.09759 -25.35755 37210 ft 442 kts 92°
2026-04-20 10:11 58.09787 -25.23562 37207 ft 442 kts 92°
2026-04-20 10:12 58.09803 -25.11329 37207 ft 442 kts 92°
2026-04-20 10:12 58.09808 -24.99331 37210 ft 442 kts 92°
2026-04-20 10:13 58.09803 -24.87337 37216 ft 441 kts 92°
2026-04-20 10:13 58.09785 -24.75371 37218 ft 441 kts 93°
2026-04-20 10:14 58.09757 -24.63486 37223 ft 441 kts 93°
2026-04-20 10:14 58.09717 -24.51629 37221 ft 440 kts 93°
2026-04-20 10:15 58.09667 -24.39820 37235 ft 439 kts 93°
2026-04-20 10:15 58.09605 -24.27939 37241 ft 438 kts 94°
2026-04-20 10:16 58.09531 -24.15825 37242 ft 439 kts 94°
2026-04-20 10:16 58.09446 -24.03779 37250 ft 437 kts 93°
2026-04-20 10:17 58.09349 -23.91654 37242 ft 437 kts 94°
2026-04-20 10:17 58.09242 -23.79681 37260 ft 435 kts 94°
2026-04-20 10:18 58.09126 -23.67946 37252 ft 436 kts 94°
2026-04-20 10:18 58.08998 -23.56169 37261 ft 437 kts 94°
2026-04-20 10:19 58.08861 -23.44397 37268 ft 435 kts 94°
2026-04-20 10:19 58.08712 -23.32711 37262 ft 434 kts 95°
2026-04-20 10:20 58.08552 -23.20906 37274 ft 433 kts 95°
2026-04-20 10:20 58.08388 -23.09581 37275 ft 434 kts 95°
2026-04-20 10:21 58.08215 -22.98275 37272 ft 433 kts 95°
2026-04-20 10:21 58.08030 -22.86961 37275 ft 433 kts 95°
2026-04-20 10:22 58.07837 -22.75675 37298 ft 433 kts 94°
2026-04-20 10:22 58.07632 -22.64302 37298 ft 433 kts 95°
2026-04-20 10:23 58.07418 -22.52989 37284 ft 432 kts 95°
2026-04-20 10:23 58.07195 -22.41723 37285 ft 431 kts 94°
2026-04-20 10:24 58.06962 -22.30460 37292 ft 432 kts 95°
2026-04-20 10:24 58.06717 -22.19143 37278 ft 433 kts 95°
2026-04-20 10:25 58.06464 -22.07874 37307 ft 433 kts 95°
2026-04-20 10:25 58.06202 -21.96632 37299 ft 432 kts 95°
2026-04-20 10:26 58.05928 -21.85338 37300 ft 432 kts 95°
2026-04-20 10:26 58.05645 -21.74083 37298 ft 432 kts 95°
2026-04-20 10:27 58.05351 -21.62760 37301 ft 433 kts 95°
2026-04-20 10:27 58.05045 -21.51428 37312 ft 433 kts 95°
2026-04-20 10:28 58.04733 -21.40190 37310 ft 433 kts 94°
2026-04-20 10:28 58.04409 -21.28882 37310 ft 433 kts 95°
2026-04-20 10:29 58.04074 -21.17561 37318 ft 433 kts 95°
2026-04-20 10:29 58.03731 -21.06316 37328 ft 434 kts 95°
2026-04-20 10:30 58.03376 -20.94972 37334 ft 435 kts 95°
2026-04-20 10:30 58.03011 -20.83660 37317 ft 435 kts 95°
2026-04-20 10:31 58.02634 -20.72280 37322 ft 435 kts 95°
2026-04-20 10:31 58.02249 -20.60986 37334 ft 434 kts 95°
2026-04-20 10:32 58.01853 -20.49653 37331 ft 435 kts 94°
2026-04-20 10:32 58.01449 -20.38370 37337 ft 434 kts 94°
2026-04-20 10:33 58.01032 -20.27018 37339 ft 436 kts 95°
2026-04-20 10:33 58.00607 -20.15713 37349 ft 436 kts 95°
2026-04-20 10:34 58.00101 -20.04355 37352 ft 435 kts 100°
2026-04-20 10:35 57.97717 -19.87947 37368 ft 437 kts 107°
2026-04-20 10:35 57.95893 -19.77099 37360 ft 436 kts 107°
2026-04-20 10:36 57.94021 -19.66358 37348 ft 436 kts 108°
2026-04-20 10:36 57.92102 -19.55549 37347 ft 437 kts 107°
2026-04-20 10:37 57.90168 -19.44766 37349 ft 437 kts 108°
2026-04-20 10:37 57.88217 -19.33976 37345 ft 437 kts 108°
2026-04-20 10:38 57.86261 -19.23230 37357 ft 438 kts 108°
2026-04-20 10:38 57.84284 -19.12434 37365 ft 439 kts 108°
2026-04-20 10:39 57.82296 -19.01639 37368 ft 440 kts 108°
2026-04-20 10:39 57.80306 -18.90893 37373 ft 440 kts 108°
2026-04-20 10:40 57.78286 -18.80053 37366 ft 441 kts 108°
2026-04-20 10:40 57.76270 -18.69293 37368 ft 440 kts 108°
2026-04-20 10:41 57.74253 -18.58591 37365 ft 441 kts 108°
2026-04-20 10:41 57.72208 -18.47792 37364 ft 443 kts 108°
2026-04-20 10:42 57.70144 -18.36964 37361 ft 443 kts 107°
2026-04-20 10:42 57.68081 -18.26195 37359 ft 443 kts 108°
2026-04-20 10:43 57.66003 -18.15408 37364 ft 445 kts 108°
2026-04-20 10:43 57.63895 -18.04530 37368 ft 445 kts 108°
2026-04-20 10:44 57.61799 -17.93768 37374 ft 445 kts 108°
2026-04-20 10:44 57.59684 -17.82974 37377 ft 447 kts 108°
2026-04-20 10:45 57.57545 -17.72121 37375 ft 447 kts 108°
2026-04-20 10:45 57.55401 -17.61293 37379 ft 448 kts 108°
2026-04-20 10:46 57.53255 -17.50519 37377 ft 447 kts 108°
2026-04-20 10:46 57.51085 -17.39678 37377 ft 449 kts 107°
2026-04-20 10:47 57.48896 -17.28810 37376 ft 451 kts 108°
2026-04-20 10:47 57.46707 -17.18000 37377 ft 451 kts 108°
2026-04-20 10:48 57.44506 -17.07187 37375 ft 452 kts 108°
2026-04-20 10:48 57.42273 -16.96271 37376 ft 453 kts 108°
2026-04-20 10:49 57.40044 -16.85442 37378 ft 452 kts 108°
2026-04-20 10:49 57.37802 -16.74604 37378 ft 454 kts 108°
2026-04-20 10:50 57.35545 -16.63757 37374 ft 454 kts 108°
2026-04-20 10:50 57.33272 -16.52884 37377 ft 455 kts 108°
2026-04-20 10:51 57.30999 -16.42073 37375 ft 455 kts 108°
2026-04-20 10:51 57.28697 -16.31181 37380 ft 455 kts 108°
2026-04-20 10:52 57.26392 -16.20333 37384 ft 457 kts 108°
2026-04-20 10:52 57.24070 -16.09461 37392 ft 458 kts 108°
2026-04-20 10:53 57.21727 -15.98553 37394 ft 459 kts 108°
2026-04-20 10:53 57.19381 -15.87685 37391 ft 459 kts 108°
2026-04-20 10:54 57.17026 -15.76834 37377 ft 459 kts 108°
2026-04-20 10:54 57.14657 -15.65978 37391 ft 459 kts 108°
2026-04-20 10:55 57.12274 -15.55109 37387 ft 460 kts 108°
2026-04-20 10:55 57.09883 -15.44265 37391 ft 461 kts 108°
2026-04-20 10:56 57.07475 -15.33403 37386 ft 461 kts 108°
2026-04-20 10:56 57.05058 -15.22547 37389 ft 462 kts 109°
2026-04-20 10:57 57.02625 -15.11685 37381 ft 462 kts 108°
2026-04-20 10:57 57.00314 -15.00833 37378 ft 459 kts 101°
2026-04-20 10:58 56.99441 -14.89432 37393 ft 452 kts 90°
2026-04-20 10:58 56.98941 -14.77928 37383 ft 454 kts 91°
2026-04-20 10:59 56.98402 -14.66444 37382 ft 454 kts 91°
2026-04-20 10:59 56.97845 -14.54987 37386 ft 454 kts 90°
2026-04-20 11:00 56.97274 -14.43554 37384 ft 454 kts 90°
2026-04-20 11:00 56.96689 -14.32052 37387 ft 456 kts 91°
2026-04-20 11:01 56.96090 -14.20509 37399 ft 456 kts 91°
2026-04-20 11:01 56.95480 -14.08965 37384 ft 457 kts 91°
2026-04-20 11:02 56.94157 -13.97601 37413 ft 467 kts 107°
2026-04-20 11:02 56.91496 -13.86760 37394 ft 469 kts 110°
2026-04-20 11:03 56.88744 -13.75993 37395 ft 469 kts 110°
2026-04-20 11:03 56.85954 -13.65243 37383 ft 472 kts 110°
2026-04-20 11:04 56.83149 -13.54525 37382 ft 472 kts 110°
2026-04-20 11:04 56.80305 -13.43736 37392 ft 471 kts 110°
2026-04-20 11:05 56.77478 -13.33060 37379 ft 473 kts 111°
2026-04-20 11:05 56.74611 -13.22289 37378 ft 473 kts 111°
2026-04-20 11:06 56.71742 -13.11563 37379 ft 473 kts 111°
2026-04-20 11:06 56.68868 -13.00867 37374 ft 474 kts 111°
2026-04-20 11:07 56.65970 -12.90136 37377 ft 475 kts 111°
2026-04-20 11:07 56.63078 -12.79472 37376 ft 476 kts 111°
2026-04-20 11:08 56.60152 -12.68740 37371 ft 475 kts 111°
2026-04-20 11:08 56.57235 -12.58085 37387 ft 474 kts 111°
2026-04-20 11:09 56.54301 -12.47424 37376 ft 476 kts 111°
2026-04-20 11:09 56.51344 -12.36727 37369 ft 476 kts 111°
2026-04-20 11:10 56.48379 -12.26048 37356 ft 478 kts 112°
2026-04-20 11:10 56.45398 -12.15362 37359 ft 477 kts 112°
2026-04-20 11:11 56.42411 -12.04705 37358 ft 478 kts 112°
2026-04-20 11:11 56.39421 -11.94090 37340 ft 477 kts 112°
2026-04-20 11:12 56.36434 -11.83528 37336 ft 478 kts 112°
2026-04-20 11:12 56.33418 -11.72920 37372 ft 478 kts 112°
2026-04-20 11:13 56.30381 -11.62281 37356 ft 478 kts 112°
2026-04-20 11:13 56.27352 -11.51718 37367 ft 479 kts 112°
2026-04-20 11:14 56.24298 -11.41115 37381 ft 480 kts 112°
2026-04-20 11:14 56.21226 -11.30502 37395 ft 479 kts 114°
2026-04-20 11:15 56.18152 -11.19933 37380 ft 480 kts 114°
2026-04-20 11:15 56.15067 -11.09369 37357 ft 481 kts 114°
2026-04-20 11:16 56.11975 -10.98830 37377 ft 481 kts 114°
2026-04-20 11:16 56.08866 -10.88283 37388 ft 479 kts 114°
2026-04-20 11:17 56.05755 -10.77771 37375 ft 481 kts 114°
2026-04-20 11:17 56.02645 -10.67312 37353 ft 480 kts 114°
2026-04-20 11:18 55.99499 -10.56782 37359 ft 480 kts 114°
2026-04-20 11:18 55.96350 -10.46285 37342 ft 484 kts 114°
2026-04-20 11:19 55.93185 -10.35787 37330 ft 482 kts 114°
2026-04-20 11:19 55.90025 -10.25348 37344 ft 482 kts 115°
2026-04-20 11:20 55.86843 -10.14881 37335 ft 483 kts 115°
2026-04-20 11:20 55.83649 -10.04424 37348 ft 484 kts 115°
2026-04-20 11:21 55.80384 -9.94018 37350 ft 485 kts 116°
2026-04-20 11:21 55.76862 -9.83044 37407 ft 486 kts 116°
2026-04-20 11:22 55.73083 -9.71320 37343 ft 482 kts 116°
2026-04-20 11:22 55.69320 -9.59700 37348 ft 485 kts 116°
2026-04-20 11:23 55.65574 -9.48192 37331 ft 486 kts 116°
2026-04-20 11:23 55.61941 -9.37082 37345 ft 485 kts 116°
2026-04-20 11:24 55.58409 -9.26328 37350 ft 485 kts 117°
2026-04-20 11:24 55.54874 -9.15611 37328 ft 486 kts 117°
2026-04-20 11:25 55.51317 -9.04877 37341 ft 486 kts 117°
2026-04-20 11:25 55.47727 -8.94092 37349 ft 487 kts 117°
2026-04-20 11:26 55.44173 -8.83464 37346 ft 486 kts 117°
2026-04-20 11:26 55.40542 -8.72650 37284 ft 489 kts 117°
2026-04-20 11:26 55.38661 -8.67066 36752 ft 497 kts 117°
2026-04-20 11:27 55.36742 -8.61388 36262 ft 496 kts 117°
2026-04-20 11:27 55.34870 -8.55860 35765 ft 493 kts 117°
2026-04-20 11:27 55.32983 -8.50300 35353 ft 491 kts 117°
2026-04-20 11:28 55.29272 -8.39397 35338 ft 495 kts 117°
2026-04-20 11:28 55.25561 -8.28546 35336 ft 498 kts 118°
2026-04-20 11:29 55.21888 -8.17853 35325 ft 497 kts 118°
2026-04-20 11:29 55.18246 -8.07298 35325 ft 497 kts 118°
2026-04-20 11:30 55.14610 -7.96805 35321 ft 496 kts 118°
2026-04-20 11:30 55.10973 -7.86348 35330 ft 501 kts 118°
2026-04-20 11:31 55.07272 -7.75760 35325 ft 504 kts 119°
2026-04-20 11:31 55.03511 -7.65050 35320 ft 503 kts 118°
2026-04-20 11:32 54.99757 -7.54403 35315 ft 504 kts 118°
2026-04-20 11:32 54.95986 -7.43752 35304 ft 504 kts 118°
2026-04-20 11:33 54.92239 -7.33213 35317 ft 503 kts 120°
2026-04-20 11:33 54.88432 -7.22555 35307 ft 504 kts 120°
2026-04-20 11:34 54.84705 -7.12166 35300 ft 504 kts 120°
2026-04-20 11:34 54.81023 -7.01942 35300 ft 504 kts 120°
2026-04-20 11:35 54.77304 -6.91663 35267 ft 505 kts 120°
2026-04-20 11:35 54.73594 -6.81449 35264 ft 505 kts 120°
2026-04-20 11:36 54.69853 -6.71190 35266 ft 505 kts 120°
2026-04-20 11:36 54.66106 -6.60959 35271 ft 506 kts 120°
2026-04-20 11:37 54.62350 -6.50746 35275 ft 506 kts 120°
2026-04-20 11:37 54.56708 -6.35482 35290 ft 506 kts 120°
2026-04-20 11:38 54.52924 -6.25300 35290 ft 505 kts 121°
2026-04-20 11:38 54.49157 -6.15204 35290 ft 507 kts 121°
2026-04-20 11:39 54.45336 -6.05006 35294 ft 507 kts 121°
2026-04-20 11:39 54.41532 -5.94890 35285 ft 508 kts 121°
2026-04-20 11:40 54.37701 -5.84749 35296 ft 506 kts 121°
2026-04-20 11:40 54.33876 -5.74665 35294 ft 507 kts 121°
2026-04-20 11:41 54.30046 -5.64605 35296 ft 507 kts 121°
2026-04-20 11:41 54.26138 -5.54664 35302 ft 507 kts 124°
2026-04-20 11:42 54.22024 -5.44881 35296 ft 507 kts 123°
2026-04-20 11:42 54.17914 -5.35155 35298 ft 507 kts 124°
2026-04-20 11:43 54.13815 -5.25503 35293 ft 508 kts 124°
2026-04-20 11:43 54.09662 -5.15766 35300 ft 508 kts 124°
2026-04-20 11:44 54.05503 -5.06054 35296 ft 508 kts 124°
2026-04-20 11:44 54.01388 -4.96483 35298 ft 505 kts 125°
2026-04-20 11:45 53.97239 -4.86869 35293 ft 507 kts 125°
2026-04-20 11:45 53.93074 -4.77263 35300 ft 507 kts 125°
2026-04-20 11:46 53.88893 -4.67656 35295 ft 509 kts 125°
2026-04-20 11:46 53.84690 -4.58036 35291 ft 510 kts 125°
2026-04-20 11:47 53.80473 -4.48420 35297 ft 509 kts 125°
2026-04-20 11:47 53.76270 -4.38870 35304 ft 509 kts 125°
2026-04-20 11:48 53.72028 -4.29265 35280 ft 511 kts 126°
2026-04-20 11:48 53.67815 -4.19764 35289 ft 510 kts 126°
2026-04-20 11:49 53.63549 -4.10180 35280 ft 512 kts 126°
2026-04-20 11:49 53.59302 -4.00675 35281 ft 511 kts 126°
2026-04-20 11:50 53.55059 -3.91215 35277 ft 512 kts 126°
2026-04-20 11:50 53.50759 -3.81664 35272 ft 512 kts 126°
2026-04-20 11:51 53.46498 -3.72236 35271 ft 511 kts 126°
2026-04-20 11:51 53.42178 -3.62713 35254 ft 512 kts 126°
2026-04-20 11:52 53.37616 -3.53704 35258 ft 512 kts 130°
2026-04-20 11:52 53.32907 -3.44756 35248 ft 513 kts 130°
2026-04-20 11:53 53.28221 -3.35867 35279 ft 513 kts 130°
2026-04-20 11:53 53.23505 -3.26947 35257 ft 514 kts 131°
2026-04-20 11:54 53.18782 -3.18044 35265 ft 513 kts 131°
2026-04-20 11:54 53.14091 -3.09233 35268 ft 513 kts 131°
2026-04-20 11:55 53.09347 -3.00354 35264 ft 513 kts 131°
2026-04-20 11:55 53.04642 -2.91576 35268 ft 513 kts 131°
2026-04-20 11:56 52.99898 -2.82762 35279 ft 514 kts 131°
2026-04-20 11:56 52.95132 -2.73935 35269 ft 514 kts 131°
2026-04-20 11:57 52.90373 -2.65153 35269 ft 515 kts 131°
2026-04-20 11:57 52.85600 -2.56377 35278 ft 515 kts 131°
2026-04-20 11:58 52.80812 -2.47605 35266 ft 515 kts 132°
2026-04-20 11:58 52.76043 -2.38899 35286 ft 515 kts 132°
2026-04-20 11:59 52.71223 -2.30130 35274 ft 517 kts 133°
2026-04-20 11:59 52.66403 -2.21392 35281 ft 519 kts 133°
2026-04-20 12:00 52.61586 -2.12692 35271 ft 518 kts 133°
2026-04-20 12:00 52.56714 -2.03923 35285 ft 518 kts 133°
2026-04-20 12:01 52.51886 -1.95264 35283 ft 520 kts 133°
2026-04-20 12:01 52.47014 -1.86554 35296 ft 518 kts 133°
2026-04-20 12:02 52.42147 -1.77870 35288 ft 519 kts 131°
2026-04-20 12:02 52.38210 -1.68086 35302 ft 519 kts 113°
2026-04-20 12:03 52.36163 -1.56841 35300 ft 516 kts 95°
2026-04-20 12:03 52.35889 -1.45254 35286 ft 511 kts 87°
2026-04-20 12:04 52.35879 -1.33750 35294 ft 511 kts 87°
2026-04-20 12:04 52.35897 -1.22112 35266 ft 512 kts 87°
2026-04-20 12:05 52.35917 -1.10522 35278 ft 509 kts 87°
2026-04-20 12:05 52.35932 -0.99045 35290 ft 510 kts 87°
2026-04-20 12:06 52.35938 -0.87438 35276 ft 511 kts 87°
2026-04-20 12:06 52.35933 -0.75946 35285 ft 508 kts 87°
2026-04-20 12:07 52.35916 -0.64384 35273 ft 509 kts 88°
2026-04-20 12:07 52.35889 -0.52925 35272 ft 508 kts 87°
2026-04-20 12:08 52.35851 -0.41417 35264 ft 507 kts 88°
2026-04-20 12:08 52.35802 -0.29883 35250 ft 508 kts 88°
2026-04-20 12:09 52.35741 -0.18422 35275 ft 507 kts 88°
2026-04-20 12:09 52.35669 -0.06964 35268 ft 509 kts 88°
2026-04-20 12:10 52.35403 0.04586 35271 ft 509 kts 96°
2026-04-20 12:10 52.34427 0.16026 35269 ft 510 kts 96°
2026-04-20 12:11 52.33429 0.27405 35273 ft 507 kts 96°
2026-04-20 12:11 52.32411 0.38777 35270 ft 509 kts 96°
2026-04-20 12:12 52.31377 0.50166 35273 ft 508 kts 96°
2026-04-20 12:12 52.30333 0.61529 35271 ft 507 kts 96°
2026-04-20 12:13 52.29277 0.72898 35277 ft 508 kts 97°
2026-04-20 12:13 52.28210 0.84260 35267 ft 509 kts 97°
2026-04-20 12:14 52.27132 0.95604 35266 ft 508 kts 97°
2026-04-20 12:14 52.26045 1.06928 35268 ft 509 kts 97°
2026-04-20 12:15 52.24940 1.18318 35267 ft 509 kts 97°
2026-04-20 12:15 52.23835 1.29591 35269 ft 506 kts 97°
2026-04-20 12:16 52.22719 1.40877 35263 ft 507 kts 97°
2026-04-20 12:16 52.21582 1.52243 35268 ft 508 kts 97°
2026-04-20 12:17 52.20446 1.63492 35260 ft 508 kts 97°
2026-04-20 12:17 52.19291 1.74821 35258 ft 508 kts 98°
2026-04-20 12:18 52.18129 1.86096 35264 ft 507 kts 98°
2026-04-20 12:18 52.16952 1.97411 35261 ft 508 kts 98°
2026-04-20 12:19 52.15767 2.08698 35257 ft 507 kts 98°
2026-04-20 12:19 52.14579 2.19899 35257 ft 506 kts 98°
2026-04-20 12:20 52.13376 2.31135 35254 ft 507 kts 98°
2026-04-20 12:20 52.12221 2.42396 35242 ft 505 kts 94°
2026-04-20 12:21 52.12537 2.53702 35256 ft 501 kts 75°
2026-04-20 12:21 52.14459 2.64446 35243 ft 499 kts 70°
2026-04-20 12:22 52.16499 2.75220 35240 ft 498 kts 71°
2026-04-20 12:22 52.18511 2.85898 35236 ft 496 kts 71°
2026-04-20 12:23 52.20517 2.96605 35242 ft 495 kts 71°
2026-04-20 12:23 52.22501 3.07259 35243 ft 495 kts 71°
2026-04-20 12:24 52.24486 3.17976 35241 ft 495 kts 71°
2026-04-20 12:24 52.26451 3.28649 35238 ft 494 kts 71°
2026-04-20 12:25 52.28416 3.39371 35244 ft 494 kts 71°
2026-04-20 12:25 52.30373 3.50113 35240 ft 494 kts 71°
2026-04-20 12:26 52.32304 3.60769 35242 ft 493 kts 71°
2026-04-20 12:26 52.34238 3.71511 35239 ft 493 kts 72°
2026-04-20 12:27 52.36080 3.82244 35234 ft 494 kts 77°
2026-04-20 12:27 52.36499 3.93419 35246 ft 496 kts 90°
2026-04-20 12:28 52.36314 4.04603 35239 ft 497 kts 90°
2026-04-20 12:28 52.36077 4.15850 35236 ft 497 kts 90°
2026-04-20 12:29 52.35813 4.27149 35236 ft 497 kts 90°
2026-04-20 12:29 52.35533 4.38376 35234 ft 496 kts 91°
2026-04-20 12:30 52.35241 4.49550 35233 ft 495 kts 91°
2026-04-20 12:30 52.34934 4.60827 35234 ft 496 kts 91°
2026-04-20 12:31 52.34613 4.72060 35231 ft 496 kts 91°
2026-04-20 12:31 52.34282 4.83245 35228 ft 496 kts 91°
2026-04-20 12:32 52.33940 4.94477 35228 ft 496 kts 91°
2026-04-20 12:32 52.33511 5.05624 35223 ft 495 kts 97°
2026-04-20 12:33 52.31654 5.16391 35232 ft 497 kts 110°
2026-04-20 12:33 52.29207 5.26966 35220 ft 498 kts 110°
2026-04-20 12:34 52.26732 5.37431 35216 ft 497 kts 110°
2026-04-20 12:34 52.24233 5.47872 35209 ft 498 kts 110°
2026-04-20 12:35 52.21698 5.58387 35204 ft 497 kts 110°
2026-04-20 12:35 52.19179 5.68776 35196 ft 497 kts 111°
2026-04-20 12:36 52.16636 5.79210 35190 ft 497 kts 111°
2026-04-20 12:36 52.14094 5.89586 35189 ft 498 kts 111°
2026-04-20 12:37 52.11518 6.00048 35191 ft 498 kts 111°
2026-04-20 12:37 52.09406 6.10680 35194 ft 496 kts 99°
2026-04-20 12:38 52.08225 6.21654 35176 ft 497 kts 98°
2026-04-20 12:38 52.07056 6.32645 35175 ft 496 kts 98°
2026-04-20 12:39 52.05298 6.49165 35176 ft 495 kts 98°
2026-04-20 12:40 52.04116 6.60184 35175 ft 495 kts 98°
2026-04-20 12:40 52.02884 6.71135 35170 ft 496 kts 103°
2026-04-20 12:41 52.00264 6.81473 35184 ft 497 kts 120°
2026-04-20 12:41 51.96761 6.91046 35171 ft 497 kts 121°
2026-04-20 12:42 51.93198 7.00579 35172 ft 496 kts 121°
2026-04-20 12:42 51.89604 7.10082 35170 ft 492 kts 121°
2026-04-20 12:43 51.86037 7.19449 35171 ft 491 kts 121°
2026-04-20 12:43 51.82443 7.28856 34784 ft 501 kts 121°
2026-04-20 12:43 51.80603 7.33658 34296 ft 502 kts 121°
2026-04-20 12:44 51.78775 7.38417 33746 ft 500 kts 121°
2026-04-20 12:44 51.76959 7.43139 33263 ft 496 kts 121°
2026-04-20 12:44 51.75152 7.47812 32798 ft 494 kts 122°
2026-04-20 12:44 51.73102 7.52223 32353 ft 492 kts 131°
2026-04-20 12:45 51.70674 7.56029 31897 ft 491 kts 140°
2026-04-20 12:45 51.67889 7.59208 31424 ft 492 kts 149°
2026-04-20 12:45 51.64846 7.61650 30973 ft 489 kts 157°
2026-04-20 12:45 51.61735 7.63623 30441 ft 483 kts 158°
2026-04-20 12:46 51.58605 7.65542 29797 ft 478 kts 160°
2026-04-20 12:46 51.55512 7.67385 29120 ft 477 kts 160°
2026-04-20 12:46 51.52405 7.69198 28416 ft 475 kts 160°
2026-04-20 12:46 51.49314 7.70980 27717 ft 473 kts 160°
2026-04-20 12:47 51.46214 7.72753 26908 ft 473 kts 159°
2026-04-20 12:47 51.43134 7.74506 25951 ft 475 kts 159°
2026-04-20 12:47 51.40023 7.76269 24938 ft 477 kts 159°
2026-04-20 12:47 51.36903 7.78035 23900 ft 478 kts 159°
2026-04-20 12:48 51.33800 7.79788 22833 ft 477 kts 159°
2026-04-20 12:48 51.30676 7.81553 21865 ft 474 kts 159°
2026-04-20 12:48 51.27620 7.83272 21080 ft 467 kts 160°
2026-04-20 12:48 51.24597 7.84970 20296 ft 461 kts 160°
2026-04-20 12:49 51.21586 7.86658 19415 ft 448 kts 160°
2026-04-20 12:49 51.18748 7.88317 18620 ft 427 kts 156°
2026-04-20 12:49 51.16216 7.90459 17832 ft 409 kts 146°
2026-04-20 12:49 51.14072 7.93288 17057 ft 393 kts 131°
2026-04-20 12:50 51.12521 7.96688 16318 ft 378 kts 121°
2026-04-20 12:50 51.10972 7.99976 15527 ft 368 kts 135°
2026-04-20 12:50 51.08978 8.02338 15078 ft 349 kts 153°
2026-04-20 12:50 51.06757 8.03569 14824 ft 329 kts 171°
2026-04-20 12:51 51.04557 8.03643 14567 ft 312 kts 189°
2026-04-20 12:51 51.02559 8.02602 14320 ft 296 kts 212°
2026-04-20 12:51 51.01098 8.00458 14105 ft 280 kts 240°
2026-04-20 12:51 51.00440 7.97675 13898 ft 265 kts 262°
2026-04-20 12:52 51.00179 7.94806 13579 ft 259 kts 264°
2026-04-20 12:52 51.00277 7.92045 13231 ft 251 kts 292°
2026-04-20 12:52 51.01204 7.89803 12936 ft 240 kts 322°
2026-04-20 12:52 51.02497 7.88189 12629 ft 236 kts 319°
2026-04-20 12:53 51.03627 7.86387 12426 ft 229 kts 313°
2026-04-20 12:53 51.04652 7.84512 12142 ft 222 kts 311°
2026-04-20 12:53 51.05561 7.82531 11628 ft 219 kts 297°
2026-04-20 12:53 51.05806 7.80190 11113 ft 219 kts 265°
2026-04-20 12:54 51.05494 7.77853 10645 ft 218 kts 259°
2026-04-20 12:54 51.05172 7.75511 10130 ft 217 kts 259°
2026-04-20 12:54 51.04859 7.73191 9616 ft 215 kts 259°
2026-04-20 12:54 51.04543 7.70897 9106 ft 212 kts 260°
2026-04-20 12:55 51.04223 7.68644 8604 ft 211 kts 260°
2026-04-20 12:55 51.03892 7.66378 8090 ft 213 kts 259°
2026-04-20 12:55 51.03556 7.64102 7767 ft 212 kts 259°
2026-04-20 12:55 51.03212 7.61797 7519 ft 218 kts 259°
2026-04-20 12:56 51.02860 7.59457 7273 ft 219 kts 259°
2026-04-20 12:56 51.02504 7.57104 7019 ft 217 kts 259°
2026-04-20 12:56 51.02159 7.54831 6945 ft 211 kts 259°
2026-04-20 12:56 51.01814 7.52554 6961 ft 216 kts 259°
2026-04-20 12:57 51.01460 7.50222 6959 ft 218 kts 259°
2026-04-20 12:57 51.01107 7.47870 6950 ft 216 kts 259°
2026-04-20 12:57 51.00765 7.45588 6957 ft 215 kts 259°
2026-04-20 12:57 51.00422 7.43279 6960 ft 215 kts 260°
2026-04-20 12:58 51.00075 7.40949 6960 ft 215 kts 259°
2026-04-20 12:58 50.99731 7.38669 6963 ft 215 kts 259°
2026-04-20 12:58 50.99036 7.36547 6946 ft 219 kts 232°
2026-04-20 12:58 50.97980 7.34804 6974 ft 222 kts 229°
2026-04-20 12:59 50.96926 7.33020 6961 ft 222 kts 229°
2026-04-20 12:59 50.95885 7.31256 6955 ft 215 kts 229°
2026-04-20 12:59 50.94872 7.29553 6958 ft 210 kts 229°
2026-04-20 12:59 50.93854 7.27872 6968 ft 213 kts 225°
2026-04-20 13:00 50.92533 7.26837 6962 ft 217 kts 189°
2026-04-20 13:00 50.91065 7.27184 6977 ft 217 kts 153°
2026-04-20 13:00 50.89889 7.28608 6940 ft 209 kts 136°
2026-04-20 13:00 50.88810 7.30131 6697 ft 206 kts 137°
2026-04-20 13:01 50.87769 7.31587 6426 ft 200 kts 137°
2026-04-20 13:01 50.86731 7.33044 6158 ft 198 kts 136°
2026-04-20 13:01 50.85696 7.34499 5901 ft 198 kts 136°
2026-04-20 13:01 50.84671 7.35938 5640 ft 198 kts 137°
2026-04-20 13:02 50.83646 7.37373 5388 ft 198 kts 136°
2026-04-20 13:02 50.82610 7.38820 5128 ft 197 kts 136°
2026-04-20 13:02 50.81596 7.40236 4876 ft 196 kts 136°
2026-04-20 13:02 50.80563 7.41667 4619 ft 196 kts 136°
2026-04-20 13:03 50.79542 7.43073 4364 ft 195 kts 137°
2026-04-20 13:03 50.78525 7.44481 4108 ft 194 kts 136°
2026-04-20 13:03 50.77505 7.45892 3855 ft 194 kts 137°
2026-04-20 13:03 50.76506 7.47265 3602 ft 193 kts 136°
2026-04-20 13:04 50.75482 7.48672 3347 ft 193 kts 136°
2026-04-20 13:04 50.74471 7.50050 3095 ft 192 kts 137°
2026-04-20 13:04 50.73471 7.51402 2944 ft 187 kts 141°
2026-04-20 13:04 50.72264 7.52056 2951 ft 190 kts 183°
2026-04-20 13:05 50.71055 7.51328 2973 ft 191 kts 223°
2026-04-20 13:05 50.70182 7.49784 2969 ft 188 kts 233°
2026-04-20 13:05 50.69352 7.48174 2939 ft 186 kts 238°
2026-04-20 13:05 50.68808 7.46342 2961 ft 184 kts 252°
2026-04-20 13:06 50.68608 7.44411 2942 ft 179 kts 279°
2026-04-20 13:06 50.68816 7.42486 2965 ft 177 kts 283°
2026-04-20 13:06 50.69078 7.40614 2942 ft 173 kts 296°
2026-04-20 13:06 50.69824 7.39187 2979 ft 168 kts 320°
2026-04-20 13:07 50.70696 7.37917 2958 ft 171 kts 318°
2026-04-20 13:07 50.71540 7.36665 2946 ft 164 kts 319°
2026-04-20 13:07 50.72383 7.35434 2960 ft 164 kts 319°
2026-04-20 13:07 50.73222 7.34215 2958 ft 166 kts 320°
2026-04-20 13:08 50.74073 7.32985 2955 ft 165 kts 319°
2026-04-20 13:08 50.74918 7.31767 2953 ft 162 kts 320°
2026-04-20 13:08 50.75745 7.30579 2923 ft 163 kts 320°
2026-04-20 13:08 50.76607 7.29345 2717 ft 170 kts 319°
2026-04-20 13:09 50.77487 7.28084 2494 ft 173 kts 319°
2026-04-20 13:09 50.78363 7.26828 2252 ft 167 kts 319°
2026-04-20 13:09 50.79209 7.25615 2014 ft 162 kts 320°
2026-04-20 13:09 50.80018 7.24454 1772 ft 151 kts 320°
2026-04-20 13:10 50.80761 7.23384 1555 ft 141 kts 320°
2026-04-20 13:10 50.81469 7.22370 1413 ft 138 kts 319°
2026-04-20 13:10 50.82198 7.21325 1234 ft 144 kts 319°
2026-04-20 13:10 50.82943 7.20256 1047 ft 149 kts 320°
2026-04-20 13:11 50.83725 7.19133 841 ft 153 kts 319°
2026-04-20 13:11 50.84523 7.17983 630 ft 157 kts 319°
2026-04-20 13:11 50.85334 7.16819 420 ft 159 kts 318°
2026-04-20 13:11 50.86140 7.15656 295 ft 151 kts 319°
2026-04-20 13:12 50.86728 7.14814 272 ft 76 kts 318°
2026-04-20 13:12 50.87016 7.14399 261 ft 51 kts 317°
2026-04-20 13:12 50.87216 7.14109 254 ft 0 kts 317°
2026-04-20 13:12 50.87249 7.14050 253 ft 15 kts 309°
2026-04-20 13:13 50.87298 7.13876 251 ft 19 kts 287°
2026-04-20 13:13 50.87325 7.13644 247 ft 23 kts 278°
2026-04-20 13:13 50.87334 7.13445 247 ft 14 kts 245°
2026-04-20 13:13 50.87254 7.13445 247 ft 14 kts 140°
2026-04-20 13:14 50.87177 7.13556 248 ft 15 kts 137°
2026-04-20 13:14 50.87097 7.13671 250 ft 14 kts 137°
2026-04-20 13:14 50.87039 7.13755 252 ft 6 kts 138°
2026-04-20 13:14 50.87011 7.13754 252 ft 5 kts 227°
2026-04-20 13:15 50.86980 7.13701 251 ft 6 kts 227°
2026-04-20 13:15 50.86959 7.13664 251 ft 0 kts 227°